Find Starlink 32664

NORAD ID: 62204 Int'l Des: 2024-229 Owner: SPXS Country: US Constellation: starlink operational
LEOCIRCULAR

当前视图

正在加载3D地球...

About Starlink 32664

Starlink 32664 (NORAD 62204) is a starlink constellation satellite (v2 mini) launched Dec 4, 2024 by SPXS of US. It operates in LEO, CIRCULAR orbit with a mass of 730.00 kg.

关于 Starlink 32664

正在加载描述...

即将过境

Passes for default location (London). Set your location on the main map for personalized predictions.

高度历史

Loading altitude history...

两行轨道根数

1 62204U 24229N 26168.91668981 .00199480 00000-0 22671-2 0 9995
2 62204 42.9917 48.9251 0026649 239.3145 21.2233 15.60482200 5962
Epoch: Jun 17, 2026 • Age: 11 hours

当前状态

高度 397.7 km
速度 7.67 km/s
星下点 12.73°N, 14.6°E
发射日期 Dec 4, 2024
运行时间 1.5 years
类型 internet

技术详情

分类 Payload
质量 730.00 kg
干质量 700.00 kg
总质量 730.00 kg
长度 0.30 m
直径 4.10 m
跨度 29.00 m
形状 Box + pan
制造商 SPXS
平台类型 Starlink V2M
阶段状态 In Orbit
所有者/国家 SPXS/US

Most Searched